Theta_e
315 317 317 316 316 312 310 312 313 311 312 312 313 312 311 310 308 308 307 308 307 307 309 313 314 317 320 320 319 318 317 318 317 316 316 316 316 317 317 318 317 318 318 316
316 317 313 313 314 315 315 315 314 312 312 312 309 309 308 309 309 309 307 306 306 308 309 312 318 321 320 320 319 318 319 319 319 316 316 317 317 317 317 319 316 316 318 318
314 313 313 314 315 316 316 316 314 313 312 310 309 310 307 306 306 306 307 307 309 309 309 316 322 321 320 319 318 318 319 321 321 319 319 319 318 317 317 316 313 315 316 317
314 314 314 314 316 315 316 313 314 314 312 312 309 310 306 305 304 304 305 307 308 308 309 319 322 322 321 321 319 319 323 323 318 315 316 318 317 315 315 313 314 315 314 315
312 311 314 315 313 312 315 311 311 312 309 311 309 306 305 304 305 304 309 310 311 307 308 320 323 323 323 323 322 323 325 323 318 314 314 314 314 315 314 314 313 313 313 314
310 309 311 310 311 311 311 312 307 309 307 306 309 305 304 305 307 309 310 312 311 310 307 317 323 324 324 323 323 324 323 321 318 316 314 314 313 313 312 312 312 312 313 313
311 311 310 310 311 310 311 312 314 314 316 311 300 305 305 304 307 310 310 310 309 309 308 307 323 324 323 324 326 324 323 320 319 316 316 315 314 313 312 312 312 311 312 312
311 306 308 308 311 310 310 311 309 309 310 308 308 311 308 308 308 305 308 309 310 308 307 311 322 324 324 323 325 324 323 321 319 318 316 315 314 313 312 312 312 312 312 312
300 305 301 304 300 309 310 311 308 309 306 305 306 305 303 303 304 309 308 308 308 306 306 309 315 324 325 324 324 324 323 322 320 319 316 314 315 313 313 312 312 312 312 312
295 299 298 296 302 298 306 307 313 312 312 310 305 305 304 300 299 298 299 304 304 304 305 305 307 314 325 325 324 324 323 323 322 321 319 317 315 313 313 313 312 312 312 312
293 295 295 298 297 295 301 297 302 309 306 307 305 304 300 298 297 296 296 296 297 299 303 304 305 307 315 325 324 325 324 323 322 321 322 320 318 316 313 314 314 312 312 312
292 293 293 292 293 296 296 295 296 300 303 300 301 301 298 295 294 294 294 294 295 297 302 302 303 304 308 322 324 323 324 323 322 321 321 320 319 317 315 313 313 316 318 312
292 292 289 291 297 295 294 295 295 295 293 298 300 306 296 294 292 293 293 293 295 296 298 304 302 302 303 307 320 321 322 323 323 323 322 321 320 320 318 316 316 314 314 314
292 291 290 288 290 291 292 292 292 293 292 291 292 293 292 291 291 292 292 293 294 296 297 300 302 300 301 303 306 312 322 323 324 324 323 322 321 321 321 320 318 316 314 314
288 286 290 290 290 291 291 291 291 291 291 291 290 290 290 290 290 291 292 293 294 295 296 298 300 301 300 301 303 305 308 318 323 323 323 323 322 321 321 321 320 318 315 314
288 285 290 289 290 290 290 290 289 290 290 291 290 290 290 290 291 292 292 293 293 295 296 296 299 301 300 301 302 304 306 311 320 323 323 322 322 322 321 320 320 320 319 318
287 286 289 287 289 290 288 285 286 286 287 288 290 290 288 289 290 289 288 289 293 294 295 296 298 300 300 301 303 305 307 314 319 322 322 322 322 321 321 322 320 320 319 319
290 288 291 286 290 289 284 283 285 284 285 286 287 286 287 285 285 285 286 289 292 293 294 295 299 300 301 305 306 309 311 314 315 317 318 320 322 321 321 320 320 319 318 318
285 290 292 287 291 287 284 283 283 283 283 284 282 282 283 283 283 284 288 290 291 289 290 295 298 301 304 305 307 307 308 309 310 311 311 317 320 320 320 319 320 320 319 318
282 281 280 283 285 288 283 282 282 282 284 281 282 282 282 282 283 284 286 287 286 287 288 294 303 304 304 304 304 304 304 304 305 306 308 310 313 313 313 315 316 317 318 318
281 281 280 282 281 284 282 282 282 282 282 282 282 282 282 282 282 283 284 284 285 287 290 299 301 300 301 302 302 302 302 301 303 306 307 308 308 309 309 309 311 311 312 313
280 278 281 281 282 280 282 281 281 281 282 281 281 282 283 283 284 284 284 284 286 288 292 295 294 295 298 300 299 298 297 298 300 302 302 302 304 304 305 306 305 306 306 305
280 281 281 282 282 282 281 282 281 281 280 281 282 282 285 288 289 287 285 285 287 289 293 293 293 293 293 295 295 294 295 297 297 297 297 297 298 298 299 299 299 299 300 300
280 281 281 280 282 281 280 281 280 280 281 281 281 283 285 286 285 285 285 285 288 291 292 293 292 292 291 292 292 292 293 294 295 294 294 294 295 294 295 295 295 295 295 295
279 280 279 279 280 278 281 280 280 280 280 281 281 282 282 284 286 288 290 291 291 290 290 290 290 290 290 291 291 292 293 293 292 292 292 292 292 292 292 292 292 293 293 294
279 278 278 279 279 278 279 279 279 279 280 280 280 280 281 282 282 283 283 284 285 285 286 286 286 286 286 287 288 290 291 292 291 291 291 291 292 292 291 291 291 291 291 291
Wind_Speed
4 8 15 20 19 8 3 4 6 2 8 6 10 15 17 15 6 12 16 13 12 9 12 20 26 27 26 30 33 31 26 20 18 25 25 30 35 34 28 24 38 43 43 41
4 21 9 7 11 11 13 12 13 6 9 6 9 12 12 16 16 17 14 10 9 5 7 6 17 22 28 33 33 33 30 24 26 27 28 25 26 35 39 28 41 46 45 42
14 7 15 14 13 13 14 14 5 10 8 6 5 12 9 9 5 7 6 9 5 7 8 6 9 17 21 25 33 39 24 26 26 28 33 26 22 25 26 34 39 45 43 44
12 15 16 9 16 15 17 6 10 11 4 4 1 6 6 9 9 13 6 6 6 6 3 6 9 13 19 26 28 28 19 20 21 18 22 39 31 29 33 38 44 44 43 45
7 3 9 18 20 16 8 6 8 6 4 3 1 2 7 3 8 12 5 2 3 6 6 8 11 18 20 16 22 22 21 22 25 23 20 28 31 33 34 35 37 42 44 44
10 5 2 4 3 16 7 4 6 4 2 3 9 7 4 4 4 4 2 2 2 3 6 7 9 15 14 17 21 22 21 22 22 29 23 26 26 25 27 27 31 34 40 41
11 17 10 6 5 3 4 9 1 2 3 6 0 1 6 8 4 3 6 5 4 3 4 6 7 9 14 17 19 20 23 21 24 27 30 28 29 18 30 30 31 32 34 39
2 5 5 3 17 7 7 9 5 8 6 4 3 6 5 3 8 7 5 4 2 5 2 4 7 9 13 17 17 18 24 21 27 26 25 29 31 23 25 29 27 30 33 39
3 5 6 2 4 10 5 9 8 4 1 3 4 5 10 12 16 7 7 7 7 7 7 5 3 9 12 15 17 21 22 23 29 31 26 25 33 30 25 31 33 32 29 27
5 5 5 8 6 12 6 6 4 2 4 5 3 3 2 15 18 19 21 17 17 13 7 6 6 2 11 13 16 19 23 24 29 30 30 30 29 32 32 33 34 34 31 28
2 3 8 4 7 11 6 5 5 2 2 5 3 2 5 5 12 14 15 16 16 16 17 8 4 6 2 14 11 15 17 20 21 23 28 28 30 29 28 29 29 32 31 33
2 2 3 4 11 14 13 8 6 3 4 2 1 3 8 7 12 16 16 16 16 15 15 9 7 6 7 6 11 11 13 16 18 21 24 27 31 28 26 29 32 31 28 31
4 1 2 2 1 7 7 7 7 5 2 2 0 4 4 15 20 18 18 18 16 17 18 15 10 6 5 5 5 9 13 16 14 18 21 25 26 27 32 31 24 29 31 30
3 0 4 4 4 5 5 7 3 4 1 4 8 14 22 21 20 19 20 17 13 13 16 13 14 8 8 5 4 1 12 17 19 21 23 23 24 24 28 28 32 29 33 32
3 3 2 1 5 4 6 9 9 5 5 5 12 17 17 20 18 14 12 11 15 14 14 16 14 12 11 10 6 4 2 6 17 20 19 20 23 26 25 26 28 29 30 32
2 3 2 3 7 5 10 9 10 12 13 13 18 26 11 12 14 14 11 11 9 10 14 14 13 12 15 15 8 5 3 4 8 15 17 18 19 20 21 22 24 24 27 29
1 2 2 4 2 3 2 13 9 10 8 6 8 15 12 14 15 14 19 19 17 12 14 13 11 10 19 14 12 7 5 3 5 8 9 12 15 16 18 18 18 21 23 24
3 2 3 3 3 4 9 17 10 18 17 5 12 16 10 14 20 20 15 18 15 9 13 16 12 15 15 12 10 5 3 5 7 9 3 5 9 12 16 19 22 22 21 23
10 2 2 1 1 7 9 15 11 10 15 8 16 22 18 18 21 23 13 5 10 14 13 23 20 9 11 11 5 3 8 8 9 10 8 7 9 9 12 14 18 20 21 22
12 8 4 4 1 2 6 19 17 10 9 18 25 26 24 20 13 20 14 13 16 25 25 27 9 3 2 5 2 5 8 11 12 9 9 9 10 10 10 8 10 13 17 19
8 5 7 6 2 3 19 22 17 2 10 30 28 28 29 23 20 29 19 24 25 25 35 16 14 11 6 0 1 7 9 12 10 12 13 10 10 12 11 11 9 7 9 10
5 3 4 5 4 5 23 13 11 11 21 24 26 26 31 30 31 30 21 20 17 17 21 7 10 18 14 9 10 11 13 10 13 16 19 20 18 15 13 15 15 14 14 14
5 5 3 4 3 9 16 11 14 15 19 20 23 29 27 23 22 20 16 15 12 17 9 10 11 20 21 15 14 18 12 14 16 19 20 21 21 20 18 20 18 19 17 16
7 10 3 5 2 15 15 15 16 19 18 19 22 22 24 10 6 3 7 7 7 7 9 16 18 17 23 15 20 19 19 18 21 22 22 23 25 24 24 24 23 22 19 17
6 6 10 4 5 15 11 19 19 21 21 21 22 21 23 23 20 12 9 8 9 7 12 19 21 20 21 17 21 23 25 25 25 24 22 20 21 23 25 27 24 24 25 18
6 5 5 3 12 7 13 20 22 20 21 20 21 23 25 24 21 21 19 21 21 16 16 22 22 25 20 22 23 26 22 25 21 20 19 19 17 16 17 19 23 25 23 23
Wind_Direction
207 213 215 207 212 220 175 225 249 282 295 304 272 271 270 277 243 262 270 272 273 252 246 233 216 206 194 200 201 196 198 208 205 205 199 199 200 186 212 221 212 201 196 189
212 234 220 226 228 237 246 257 265 281 247 239 266 269 266 273 268 260 262 262 262 258 272 204 177 172 176 186 187 192 202 201 218 206 211 199 195 180 195 210 209 200 193 192
213 206 204 207 225 226 235 238 244 251 284 265 280 278 251 266 261 257 237 239 232 242 252 173 163 177 175 179 185 196 199 193 214 213 213 209 186 173 183 186 201 196 193 192
240 241 256 217 227 219 244 192 242 262 259 239 43 285 305 267 290 285 279 240 257 271 192 167 171 183 191 195 191 198 202 200 182 169 172 181 172 164 178 185 191 192 193 191
221 216 218 235 234 230 236 207 213 225 190 343 251 328 267 268 271 277 225 236 274 239 196 172 185 189 198 196 194 195 189 191 180 164 155 154 160 164 174 182 183 188 190 192
229 261 207 212 234 224 229 167 50 60 71 292 201 181 267 232 222 342 90 115 60 159 198 201 192 158 190 189 190 188 181 180 181 179 169 156 149 160 165 172 176 183 188 191
249 251 242 212 246 182 167 155 193 212 194 236 232 110 270 284 289 270 177 214 148 117 89 179 173 174 185 187 179 177 173 167 182 177 184 169 168 177 177 178 181 181 183 190
199 312 169 206 210 185 188 177 167 190 190 234 131 223 247 246 305 252 276 180 111 77 3 149 177 187 183 188 186 180 173 172 182 186 186 184 178 190 187 186 187 189 190 195
347 253 322 50 333 176 185 205 185 96 25 67 229 286 304 30 12 357 95 71 27 51 39 20 173 190 201 187 188 191 186 181 183 183 183 186 200 203 197 196 195 194 195 195
3 296 37 310 324 27 24 340 159 164 181 218 259 254 265 19 21 27 20 15 7 358 28 48 12 164 202 205 200 191 194 193 195 187 189 198 194 193 197 200 200 204 202 202
42 57 313 346 45 355 360 7 334 282 135 181 168 252 125 59 39 27 16 10 2 358 351 346 23 348 180 212 204 199 192 196 198 194 198 202 203 205 200 206 212 212 209 210
20 86 349 299 335 98 75 34 28 31 9 26 199 231 138 64 24 12 360 356 355 360 354 331 339 9 17 164 198 208 210 205 200 196 193 194 209 207 202 201 207 214 213 219
346 119 5 13 101 52 37 20 23 338 8 68 326 216 232 354 353 358 352 346 350 351 352 351 344 346 41 27 197 208 207 217 206 196 194 203 196 205 214 213 206 208 210 213
74 115 165 193 324 340 313 320 299 133 266 315 257 305 314 327 335 342 338 333 337 338 336 337 354 329 342 41 23 10 224 221 224 219 208 196 206 209 213 217 211 208 215 214
95 188 205 211 250 240 284 297 292 272 238 252 296 288 292 305 314 314 310 315 323 324 327 332 340 341 337 354 21 26 314 237 224 219 215 222 205 201 208 213 215 208 209 211
17 273 64 286 261 256 286 321 310 266 259 255 267 279 265 289 315 309 315 309 304 314 316 315 320 336 333 329 342 353 354 300 215 216 222 219 217 207 210 209 209 209 211 215
240 169 159 270 191 274 13 354 332 338 324 339 274 285 6 330 327 339 324 313 311 311 300 297 304 318 317 324 323 345 339 342 202 208 217 211 215 211 210 213 212 214 214 214
267 158 241 220 175 230 124 28 347 327 288 331 293 304 14 337 319 313 294 272 275 304 302 296 294 312 319 324 326 2 18 90 105 100 165 195 204 208 214 215 216 218 217 218
26 321 282 59 122 127 43 4 334 332 303 45 344 324 323 317 313 296 285 315 313 321 308 288 277 283 311 317 346 62 79 79 90 96 76 100 138 166 202 212 222 226 224 225
15 35 83 7 23 62 11 343 324 296 266 351 332 318 316 320 302 281 278 292 308 307 302 285 203 157 2 336 11 98 84 83 77 87 99 101 107 124 121 126 163 209 223 229
357 5 28 3 339 123 14 350 329 26 322 321 314 306 300 291 261 277 281 287 288 293 300 234 167 134 129 172 154 84 84 68 81 101 99 100 96 93 94 105 106 121 139 155
10 12 1 352 352 351 353 344 1 304 304 305 302 296 290 276 272 259 259 260 274 284 294 178 122 101 96 109 121 82 69 83 93 98 100 98 100 100 101 101 96 96 103 105
32 10 305 11 350 326 331 320 314 312 310 310 311 306 295 279 259 242 227 236 255 278 216 127 115 102 89 100 102 82 63 99 103 96 89 90 93 92 92 96 93 87 92 84
350 5 349 343 330 336 318 332 333 330 323 324 327 331 348 321 26 133 197 218 246 196 166 112 103 81 82 73 84 87 94 101 99 87 81 76 79 76 74 73 73 74 66 72
348 338 318 277 323 326 341 341 335 337 339 345 352 353 8 32 37 49 58 65 67 47 90 92 89 81 78 74 74 86 93 97 85 82 80 77 75 74 73 69 67 69 65 71
359 349 351 303 324 312 314 330 336 343 348 353 359 4 13 31 36 44 44 37 39 30 56 74 77 77 73 68 61 69 84 96 86 76 73 77 78 80 84 83 76 70 70 68